(51) Nemausa

Orbital Elements

The following orbital elements are taken from MPC 31001:
   (51) Nemausa
Epoch 2001 Apr. 1.0 TT = JDT 2452000.5                  Goffin
M 107.41503              (2000.0)            P               Q
n   0.27086362     Peri.    3.20156     -0.99989050     -0.00936640
a   2.3657504      Node   176.20462     +0.00643525     -0.97237729
e   0.0669254      Incl.    9.96685     +0.01332561     -0.23322668
P   3.64           H    7.35          G   0.08           U   0
From 3595 observations at 87 oppositions, 1858-1997, mean residual 0".52.
An explanation of the orbital elements is available.

These orbital elements are also available in forms suitable for loading into a number of popular planetarium-type software programs.


Ephemeris

The following ephemeris is at intervals of five days. A daily ephemeris covering the same time interval is also available.

Date    TT    R. A. (2000) Decl.     Delta      r     Elong.  Phase     V
 
2001 06 20    22 22.95   -00 51.4    1.914    2.472   111.3    22.5    11.9
2001 06 25    22 24.45   -00 39.3    1.860    2.474   115.5    21.8    11.8
2001 06 30    22 25.36   -00 31.5    1.807    2.477   120.0    20.8    11.7
2001 07 05    22 25.65   -00 28.3    1.757    2.479   124.6    19.7    11.6
2001 07 10    22 25.31   -00 30.0    1.709    2.482   129.3    18.5    11.5
2001 07 15    22 24.33   -00 36.9    1.665    2.484   134.3    17.0    11.4
2001 07 20    22 22.71   -00 49.2    1.625    2.486   139.4    15.4    11.3
2001 07 25    22 20.48   -01 07.1    1.590    2.489   144.7    13.7    11.2
2001 07 30    22 17.68   -01 30.5    1.559    2.491   150.0    11.7    11.1
2001 08 04    22 14.39   -01 59.2    1.534    2.493   155.5     9.7    11.0
2001 08 09    22 10.67   -02 32.6    1.515    2.495   161.0     7.6    10.8
2001 08 14    22 06.63   -03 10.3    1.502    2.497   166.3     5.5    10.7
2001 08 19    22 02.39   -03 51.5    1.495    2.499   170.8     3.7    10.6
2001 08 24    21 58.08   -04 35.3    1.495    2.501   172.6     3.0    10.5
2001 08 29    21 53.85   -05 20.5    1.502    2.503   170.1     4.0    10.6
2001 09 03    21 49.83   -06 06.0    1.515    2.505   165.4     5.8    10.7
2001 09 08    21 46.13   -06 51.0    1.535    2.506   160.1     7.9    10.9
2001 09 13    21 42.88   -07 34.3    1.562    2.508   154.5     9.9    11.0
2001 09 18    21 40.16   -08 15.2    1.594    2.509   149.0    11.9    11.1
2001 09 23    21 38.04   -08 53.0    1.632    2.511   143.5    13.7    11.3
2001 09 28    21 36.57   -09 27.1    1.675    2.512   138.2    15.4    11.4
2001 10 03    21 35.79   -09 57.3    1.722    2.513   133.0    16.9    11.5
2001 10 08    21 35.68   -10 23.2    1.774    2.515   128.0    18.3    11.6
2001 10 13    21 36.25   -10 44.9    1.829    2.516   123.1    19.4    11.7
2001 10 18    21 37.47   -11 02.1    1.887    2.517   118.3    20.4    11.8

Back to Bright Minor Planets

Astronomical Headlines Index

MPC